Powrót do katalogu

DELTA 1 DEB

AktywnySSO
NORAD 19291·DEBRIS·🇺🇸 United States

Wystrzelony Nov 6, 1973 z Vandenberg Space Force Base

Loading…

Następne Przeloty (najbliższe 24 godziny)

TLE

ŚwieżeSource: Space-Track

Epoka: Sep 12, 2026, 09:40 UTC

1 19291U 73086HD  26255.40340953  .00000088  00000-0  85301-3 0  9990
2 19291 101.8404 233.3398 0036713 359.3889 156.5484 12.51682393744398

Śledź DELTA 1 DEB w czasie rzeczywistym z AllMySat

Download on the App Store